Logan, UT

1:18 PM MST on November 13, 2019 (GMT -0700)
Logan-Cache

Weather History for KLGU - August, 2019

Change the Weather History Date:

Monday, August 26, 2019

  Actual Average Record
Temperature  
Mean Temperature 65 °F -  
Max Temperature 81 °F 86 °F 96 °F (1988)
Min Temperature 50 °F 50 °F 36 °F (1992)
Growing Degree Days 15 (Base 50)    
Moisture  
Dew Point 35 °F    
Average Humidity 34    
Maximum Humidity 61    
Minimum Humidity 17    
Precipitation  
Precipitation 0.00 in - - ()
Sea Level Pressure  
Sea Level Pressure 30.01 in    
Wind  
Wind Speed 4 mph ()    
Max Wind Speed 8 mph    
Max Gust Speed -    
Visibility 10.0 miles    
Events      
Averages and records for this station are not official NWS values.
T = Trace of Precipitation, MM = Missing Value Source: Averaged Metar Reports

Daily Weather History Graph

Daily Weather History Graph

Search for Another Location

Airport or City:

Astronomy

Aug. 26, 2019 Rise Set
Actual Time 6:46 AM MDT 8:10 PM MDT
Civil Twilight 6:17 AM MDT 8:39 PM MDT
Nautical Twilight 5:42 AM MDT 9:14 PM MDT
Astronomical Twilight 5:05 AM MDT 9:51 PM MDT
Moon 2:12 AM MDT (8/26) 5:41 PM MDT (8/26)
Length of Visible Light 14h 21m
Length of Day
13h 23m
Waning Crescent, 19% of the Moon is Illuminated
Aug 26
Waning Crescent
Aug 30
New
Sep 5
First Quarter
Sep 13
Full
Sep 21
Last Quarter

Hourly Weather History & Observations

Time (MDT) Temp. Dew Point Humidity Pressure Visibility Wind Dir Wind Speed Gust Speed Precip Events Conditions
12:51 AM 66.9 °F 33.1 °F 28% 29.91 in 10.0 mi NNW 5.8 mph - N/A   Clear
1:51 AM 61.0 °F 36.0 °F 39% 29.92 in 10.0 mi Calm Calm - N/A   Clear
2:51 AM 54.0 °F 35.1 °F 49% 29.93 in 10.0 mi Variable 4.6 mph - N/A   Clear
3:51 AM 50.0 °F 37.0 °F 61% 29.94 in 10.0 mi NW 8.1 mph - N/A   Clear
4:51 AM 55.0 °F 35.1 °F 47% 29.95 in 10.0 mi South 5.8 mph - N/A   Clear
5:51 AM 52.0 °F 35.1 °F 53% 29.97 in 10.0 mi Calm Calm - N/A   Clear
6:51 AM 51.1 °F 35.1 °F 54% 30.01 in 10.0 mi Variable 4.6 mph - N/A   Clear
7:51 AM 55.0 °F 36.0 °F 49% 30.04 in 10.0 mi WNW 3.5 mph - N/A   Clear
8:51 AM 59.0 °F 37.9 °F 46% 30.06 in 10.0 mi NW 4.6 mph - N/A   Clear
9:51 AM 64.0 °F 37.0 °F 37% 30.05 in 10.0 mi Variable 3.5 mph - N/A   Clear
10:51 AM 66.0 °F 35.1 °F 32% 30.05 in 10.0 mi Calm Calm - N/A   Clear
11:51 AM 71.1 °F 37.0 °F 29% 30.06 in 10.0 mi Calm Calm - N/A   Clear
12:51 PM 73.9 °F 34.0 °F 23% 30.03 in 10.0 mi Variable 4.6 mph - N/A   Clear
1:51 PM 75.0 °F 30.9 °F 20% 30.03 in 10.0 mi Calm Calm - N/A   Clear
2:51 PM 78.1 °F 32.0 °F 19% 30.02 in 10.0 mi Variable 4.6 mph - N/A   Clear
3:51 PM 79.0 °F 30.9 °F 17% 30.00 in 10.0 mi East 3.5 mph - N/A   Clear
4:12 PM 79.0 °F 30.0 °F 17% 30.12 in 10.0 mi ESE 5.8 mph - N/A   Partly Cloudy
4:51 PM 80.1 °F 30.9 °F 17% 29.98 in 10.0 mi Variable 5.8 mph - N/A   Clear
5:51 PM 80.1 °F 30.9 °F 17% 29.98 in 10.0 mi SSW 6.9 mph - N/A   Clear
6:51 PM 79.0 °F 32.0 °F 18% 29.99 in 10.0 mi SW 5.8 mph - N/A   Clear
7:51 PM 77.0 °F 32.0 °F 19% 29.99 in 10.0 mi SW 3.5 mph - N/A   Clear
8:51 PM 64.0 °F 44.1 °F 48% 30.02 in 10.0 mi North 6.9 mph - N/A   Clear
9:51 PM 62.1 °F 41.0 °F 46% 30.04 in 10.0 mi North 5.8 mph - N/A   Clear
10:51 PM 64.0 °F 36.0 °F 35% 30.04 in 10.0 mi NNW 3.5 mph - N/A   Clear
11:51 PM 62.1 °F 36.0 °F 38% 30.04 in 10.0 mi WSW 5.8 mph - N/A   Clear